This is the latest recevied weather packets stored in our database for station/object N8SHA. If no packets are shown the sender has not sent any weather packets the latest 10 day(s).
| Time | Temp. | Humidity | Pressure | Rain* | Wind** | Luminosity | Snow |
|---|---|---|---|---|---|---|---|
| 1777738961 | 7.78° C | 46% | 1018.1 hPa | 0 mm | - | 275 W/m² | - |
| 1777738658 | 7.22° C | 51% | 1018.1 hPa | 0 mm | - | 925 W/m² | - |
| 1777738354 | 6.67° C | 53% | 1018.2 hPa | 0 mm | - | 491 W/m² | - |
| 1777738052 | 6.67° C | 53% | 1018.2 hPa | 0 mm | - | 539 W/m² | - |
| 1777737751 | 6.67° C | 52% | 1018.1 hPa | 0 mm | - | 245 W/m² | - |
| 1777737449 | 7.78° C | 50% | 1018.1 hPa | 0 mm | - | 314 W/m² | - |
| 1777737146 | 7.78° C | 55% | 1018.1 hPa | 0 mm | - | 1036 W/m² | - |
| 1777736841 | 7.22° C | 51% | 1018 hPa | 0 mm | - | 865 W/m² | - |
| 1777736224 | 5.56° C | 52% | 1018 hPa | 0 mm | - | 194 W/m² | - |
| 1777735920 | 6.11° C | 49% | 1018.3 hPa | 0 mm | - | 429 W/m² | - |
| 1777735618 | 6.67° C | 52% | 1018.1 hPa | 0 mm | - | 225 W/m² | - |
| 1777735315 | 5.56° C | 53% | 1018.1 hPa | 0 mm | - | 421 W/m² | - |
| 1777735013 | 6.67° C | 52% | 1018 hPa | 0 mm | - | 900 W/m² | - |
| 1777734710 | 5° C | 52% | 1018.1 hPa | 0 mm | - | 212 W/m² | - |
| 1777734407 | 6.11° C | 52% | 1018.3 hPa | 0 mm | - | 845 W/m² | - |
| 1777734103 | 5.56° C | 54% | 1018.2 hPa | 0 mm | - | 244 W/m² | - |
| 1777733800 | 6.11° C | 51% | 1018.1 hPa | 0 mm | - | 227 W/m² | - |
| 1777733497 | 5.56° C | 53% | 1018.1 hPa | 0 mm | - | 802 W/m² | - |
| 1777733192 | 5° C | 56% | 1018.1 hPa | 0 mm | - | 761 W/m² | - |
| 1777732890 | 5.56° C | 56% | 1018 hPa | 0 mm | - | 121 W/m² | - |
| 1777732586 | 5.56° C | 54% | 1018.1 hPa | 0 mm | - | 249 W/m² | - |
| 1777732284 | 5° C | 55% | 1018.2 hPa | 0 mm | - | 179 W/m² | - |
| 1777731981 | 5° C | 59% | 1018.1 hPa | 0 mm | - | 171 W/m² | - |
| 1777731677 | 5.56° C | 58% | 1017.9 hPa | 0 mm | - | 130 W/m² | - |
| 1777731375 | 5.56° C | 58% | 1018 hPa | 0 mm | - | 170 W/m² | - |
* Rain latest hour (hover to see other rain measurements)
** Current wind speed in m/s (hover to see current wind gust speed)